Vertical_Velocity
-0 -1 -1 -1 -1 -1 -1 -1 -1 -1 -1 -1 -1 -1 -2 -2 -2 -2 -2 -1 -1 -1 -1 -1 -1 -1 -1 -0 0 -0 -1 -1 0 1 1 2 3 3 4 5 5 4 3 2 1 0 -0 -1 -2 -1 -0 2 3 5 6 7 4 2 1 0 1 -0 -0 2 8 9 8 6 7
-1 -0 -0 -0 -1 -1 -1 -1 -1 -1 -1 -1 -1 -1 -2 -2 -2 -2 -1 -1 -1 -1 -1 -1 -1 -1 -1 -0 -0 -1 -1 -1 -1 -0 0 1 2 3 4 6 6 6 5 4 2 1 0 0 -0 0 1 3 4 4 5 4 4 3 2 2 3 3 2 1 5 6 5 3 3
-1 -0 -0 -0 -0 -1 -1 -1 -1 -1 -1 -1 -1 -1 -2 -2 -2 -2 -1 -1 -1 -1 -1 -0 -0 -0 -1 -1 -1 -1 -1 -1 -2 -2 -1 -0 1 2 3 5 7 8 8 7 5 3 2 1 1 1 2 3 4 4 4 4 5 6 5 4 5 6 7 7 8 10 11 11 9
-1 -1 -1 -0 -0 -0 -0 -1 -1 -1 -1 -1 -1 -1 -1 -1 -2 -2 -1 -1 -1 -1 -1 -0 -0 -0 -1 -1 -1 -1 -1 -1 -1 -2 -2 -2 -0 1 2 3 5 6 8 8 7 6 6 4 3 2 2 3 3 4 4 4 5 6 7 7 8 9 10 12 16 20 23 24 22
-1 -1 -1 -0 -0 0 0 -0 -0 -1 -1 -1 -1 -1 -1 -1 -1 -1 -1 -1 -1 -1 -1 -1 -1 -0 -0 0 -0 -0 -1 -1 -1 -1 -1 -2 -2 -1 -0 1 2 3 4 5 6 7 8 8 7 6 5 4 3 3 3 4 5 5 6 6 7 8 8 9 13 17 20 20 18
-1 -1 -1 -1 -1 -0 -0 0 -0 -0 -1 -1 -1 -1 -1 -1 -1 -1 -1 -1 -1 -2 -2 -2 -1 -0 1 1 0 -0 -1 -1 -1 -0 -0 -1 -2 -3 -3 -2 -1 0 1 2 2 4 5 7 8 8 8 7 6 4 3 3 4 4 4 5 5 5 4 3 5 6 7 6 3
-1 -1 -1 -1 -1 -1 -0 -0 -0 -0 -0 -0 -0 -1 -1 -1 -0 -0 -0 -0 -1 -2 -2 -2 -1 -0 0 1 1 -0 -1 -1 -1 -1 -0 0 -1 -2 -3 -3 -3 -2 -1 -1 -0 0 2 3 5 6 7 8 7 6 5 4 4 4 3 3 4 3 2 -0 -1 -0 0 1 -0
-1 -1 -1 -1 -1 -1 -1 -1 -0 -0 -0 -0 -1 -1 -1 -1 0 0 0 -0 -1 -2 -2 -1 -1 -1 -0 0 0 -0 -1 -1 -1 -1 -0 0 -0 -1 -1 -2 -3 -3 -3 -3 -2 -2 -1 0 3 4 4 4 5 5 5 5 4 4 4 4 4 3 1 -1 -2 -1 -1 0 0
-1 -1 -1 -1 -1 -1 -1 -1 -1 -0 -0 -0 -1 -1 -1 -0 0 0 0 0 -0 -1 -1 -2 -1 -1 -1 -1 -0 -0 -1 -1 -1 -1 -0 -0 -0 0 -0 -1 -2 -2 -3 -3 -4 -4 -4 -3 0 2 2 2 2 2 3 4 4 5 5 5 5 4 2 0 -1 -1 0 1 1
-1 -1 -1 -1 -1 -1 -1 -1 -1 -1 -1 -1 -1 -1 -1 -0 -0 0 0 0 -0 -1 -1 -1 -1 -2 -2 -1 -1 -0 -0 -0 -0 -0 -0 -0 -0 -0 -0 -1 -1 -1 -2 -3 -3 -4 -4 -4 -2 -1 1 2 1 1 0 1 3 4 4 5 5 4 3 2 1 1 1 1 2
-1 -1 -1 -1 -1 -1 -1 -1 -1 -1 -1 -1 -1 -1 -1 -1 -1 -0 -0 -0 -0 -0 0 -0 -1 -2 -2 -1 -1 -1 -0 -0 -0 0 0 0 0 0 0 -0 -0 -0 -1 -2 -2 -3 -4 -4 -3 -2 -1 0 0 -0 -1 -1 1 2 3 4 3 3 2 2 2 2 2 2 3
-1 -1 -1 -1 -1 -1 -1 -1 -1 -1 -1 -1 -0 -0 -0 -0 -1 -1 -1 -0 0 0 -0 -1 -1 -1 -1 -1 -1 -1 -1 -1 -1 -0 0 0 1 0 0 -0 -0 -0 -0 -1 -2 -2 -3 -3 -2 -2 -1 -1 -0 -1 -1 -1 -0 0 1 1 2 2 2 1 1 2 2 2 3
-2 -1 -1 -1 -1 -1 -1 -1 -1 -1 -1 -1 -0 -0 0 -0 -0 -0 -0 -0 0 -0 -1 -1 -1 -0 -0 -1 -1 -2 -2 -2 -1 -1 -0 0 1 1 0 0 0 0 0 -1 -1 -2 -2 -2 -2 -2 -2 -2 -1 -1 -1 -1 -1 -1 -0 0 1 2 2 1 1 1 2 2 2
-2 -2 -2 -1 -1 -1 -1 -1 -1 -1 -1 -1 -0 -0 0 0 -0 -0 0 0 0 -0 -0 -1 -0 -0 -0 -1 -1 -1 -2 -2 -2 -2 -1 -0 0 0 0 0 0 0 0 -0 -1 -2 -2 -1 -2 -2 -2 -2 -2 -2 -1 -0 -0 -1 -1 -0 1 2 2 1 1 1 1 1 1
-3 -2 -2 -2 -2 -1 -1 -1 -1 -1 -1 -1 -0 -0 0 0 0 -0 -0 0 0 0 0 0 -0 -0 -1 -1 -1 -1 -1 -2 -2 -2 -2 -1 -1 -0 -0 0 0 0 0 0 -1 -1 -1 -1 -1 -2 -2 -2 -3 -2 -2 -1 -1 -0 -0 -0 1 1 2 1 1 1 1 1 1
-3 -3 -3 -3 -2 -2 -1 -1 -1 -1 -1 -1 -1 -0 -0 0 0 0 -0 -0 -0 0 0 0 0 -0 -1 -1 -1 -1 -1 -1 -2 -2 -2 -1 -1 -1 -1 -0 -0 0 0 0 0 -0 -0 -0 -1 -1 -2 -2 -2 -2 -2 -2 -2 -1 -1 -1 -0 0 0 1 1 1 1 1 1
-3 -3 -3 -3 -3 -3 -2 -2 -1 -1 -1 -1 -1 -1 -0 -0 -0 0 -0 -0 -0 -0 0 0 -0 -0 -0 -0 -0 -0 -1 -1 -1 -1 -1 -1 -2 -2 -2 -1 -1 -0 0 0 0 0 0 0 -0 -1 -1 -1 -1 -1 -1 -2 -2 -2 -2 -2 -1 -1 -0 -0 1 1 1 1 1
-3 -3 -3 -3 -3 -3 -3 -3 -2 -2 -1 -1 -1 -1 -1 -0 -0 -0 -0 -0 -0 0 0 0 -0 -0 -0 -0 -0 -1 -1 -1 -1 -1 -1 -1 -2 -2 -2 -2 -2 -1 -1 -0 0 0 1 1 0 -0 -1 -1 -0 -0 0 -0 -1 -2 -2 -2 -2 -1 -1 -1 -0 1 1 1 1
-2 -2 -2 -2 -3 -3 -3 -3 -3 -3 -2 -2 -2 -1 -1 -1 -1 -0 -0 -1 -0 -0 0 0 -0 0 0 -0 -1 -1 -1 -0 -1 -1 -1 -1 -1 -2 -2 -2 -2 -1 -1 -1 -0 0 1 1 1 0 -0 -1 -0 0 1 1 0 -0 -1 -1 -1 -1 -1 -1 -1 0 1 1 1
-2 -2 -2 -2 -2 -3 -3 -3 -3 -3 -3 -3 -2 -2 -2 -1 -1 -1 -1 -1 -1 -1 -0 0 0 0 0 -0 -0 -1 -1 -1 -1 -1 -1 -1 -1 -1 -1 -1 -1 -1 -1 -1 -1 -1 -0 0 1 1 0 -0 -0 0 1 1 1 1 1 1 0 -0 -1 -1 -1 -1 -0 -0 -0
-2 -1 -1 -1 -1 -2 -2 -3 -3 -3 -3 -3 -3 -3 -3 -2 -2 -1 -1 -1 -1 -1 -0 -0 -0 0 0 -0 -0 -0 -0 -1 -1 -1 -1 -1 -1 -1 -1 -1 -1 -1 -1 -1 -1 -1 -1 -0 0 1 0 0 0 0 1 1 1 2 2 2 2 1 1 0 -0 -0 -1 -1 -1
-1 -1 -1 -1 -1 -1 -2 -2 -3 -3 -3 -3 -3 -3 -3 -3 -2 -2 -1 -1 -1 -1 -0 -1 -0 -0 -0 -0 -0 -0 -0 -1 -1 -1 -1 -1 -2 -1 -1 -2 -1 -1 -1 -1 -1 -1 -1 -1 -0 0 0 0 0 1 1 1 1 2 2 3 3 3 2 2 1 1 0 -1 -2
-0 -0 -1 -1 -1 -1 -1 -2 -2 -3 -3 -3 -3 -3 -3 -3 -3 -2 -2 -1 -1 -1 -1 -1 -0 -0 -0 -0 -0 -0 -0 -0 -0 -0 -1 -1 -2 -2 -2 -2 -2 -1 -1 -1 -1 -1 -1 -1 -1 -1 -1 -0 0 1 1 0 1 1 2 3 3 3 3 2 2 2 1 0 -1
-0 -1 -1 -1 -0 -0 -0 -1 -2 -2 -3 -3 -3 -3 -3 -3 -3 -2 -2 -1 -1 -1 -1 -1 -0 0 -0 -0 -0 -0 -0 0 0 0 -0 -1 -1 -2 -2 -2 -2 -2 -2 -2 -1 -1 -1 -1 -1 -1 -1 -1 0 0 0 0 1 1 2 2 2 2 2 2 3 3 3 2 1
-0 -1 -1 -1 -1 -0 0 0 -0 -1 -2 -3 -3 -3 -3 -3 -3 -2 -2 -2 -2 -2 -1 -1 -0 -0 -0 -0 -0 -0 -0 0 0 0 -0 -0 -1 -1 -2 -2 -3 -2 -2 -3 -2 -2 -1 -1 -1 -2 -2 -1 -0 0 0 -0 0 1 1 2 2 1 1 1 2 3 3 3 2
-0 -1 -1 -1 -1 -0 0 0 0 -0 -1 -2 -3 -3 -3 -3 -3 -2 -2 -2 -2 -2 -2 -1 -0 -0 -0 -0 -0 -0 -0 -0 -0 -0 -0 -0 -0 -1 -1 -2 -2 -3 -3 -3 -3 -3 -2 -2 -2 -2 -1 -1 -0 -0 -0 -1 -0 0 1 1 1 1 1 0 1 2 3 3 3
-0 -1 -1 -1 -1 -1 -0 0 1 0 -0 -1 -2 -3 -3 -3 -3 -3 -2 -2 -2 -2 -2 -1 -1 -1 -0 -0 -0 -0 -0 -0 -0 -0 -0 -0 -1 -1 -1 -1 -2 -2 -3 -3 -3 -3 -3 -3 -2 -2 -1 -0 -1 -1 -1 -1 -1 -0 -0 0 0 0 0 0 0 0 1 2 3
0 -0 -0 -1 -1 -1 -0 0 1 1 0 0 -1 -2 -3 -4 -4 -3 -2 -2 -2 -2 -1 -1 -1 -1 -1 -0 -0 -0 -0 -0 0 0 -0 -0 -1 -1 -1 -1 -1 -2 -2 -3 -3 -3 -4 -4 -3 -2 -1 -1 -1 -1 -1 -1 -1 -1 -1 -0 0 0 -0 -0 -0 -0 -0 0 2
1 1 0 -1 -1 -1 -0 0 0 1 1 1 -0 -2 -3 -4 -4 -3 -2 -2 -2 -2 -2 -2 -2 -1 -1 -0 -1 -1 -1 0 0 0 0 -0 -0 -1 -1 -1 -1 -1 -2 -2 -2 -3 -3 -4 -3 -3 -2 -1 -1 -2 -2 -2 -1 -1 -1 -0 -0 -0 -0 -0 0 -0 -1 -0 1
2 1 1 -0 -1 -1 -0 -0 1 1 1 1 -0 -2 -3 -4 -3 -3 -2 -2 -2 -2 -2 -2 -2 -1 -1 -1 -1 -1 -0 -0 0 0 0 0 0 -0 -1 -1 -1 -1 -2 -2 -2 -2 -3 -3 -3 -3 -2 -1 -2 -2 -2 -2 -2 -1 -1 -1 -1 -1 -0 0 0 -0 -0 -0 0
2 2 1 0 -0 -0 -0 0 1 1 1 0 -0 -1 -2 -3 -3 -2 -2 -2 -2 -2 -3 -2 -2 -1 -1 -2 -1 -1 -1 -1 -0 0 0 0 0 0 -0 -1 -1 -1 -2 -2 -2 -2 -2 -3 -3 -2 -2 -1 -2 -2 -3 -2 -2 -2 -1 -1 -1 -1 -1 0 0 0 -0 -1 -1
2 2 1 1 0 0 0 1 1 1 0 0 -0 -1 -2 -2 -2 -2 -2 -2 -2 -2 -2 -2 -2 -2 -2 -2 -2 -1 -1 -1 -0 -0 -0 -0 -0 0 0 0 -0 -1 -1 -2 -1 -2 -2 -2 -2 -2 -1 -1 -2 -3 -3 -2 -2 -2 -2 -2 -2 -2 -1 -0 0 0 -0 -1 -1
2 2 1 1 1 1 1 1 0 0 0 -0 -0 -1 -1 -2 -2 -2 -2 -2 -1 -2 -2 -2 -2 -2 -2 -2 -2 -2 -1 -1 -1 -1 -1 -1 -0 -0 0 0 -0 -1 -1 -1 -1 -1 -2 -2 -2 -1 0 0 -1 -3 -3 -2 -1 -1 -1 -2 -2 -2 -1 -1 -0 -0 -0 -1 -2
2 2 2 2 2 2 1 1 0 0 -0 -0 -0 -1 -1 -1 -2 -2 -2 -1 -1 -1 -2 -2 -3 -3 -3 -3 -2 -2 -1 -1 -1 -1 -1 -1 -1 -0 0 0 -0 -1 -1 -1 -1 -2 -2 -2 -2 -1 0 1 -1 -2 -2 -1 -1 -1 -1 -2 -2 -2 -1 -1 -0 -0 -1 -1 -2
3 3 2 2 2 2 1 1 0 0 -0 -1 -1 -1 -1 -1 -1 -1 -1 -1 -1 -1 -2 -2 -3 -3 -3 -3 -2 -2 -1 -1 -1 -1 -1 -1 -1 -1 -0 -1 -1 -1 -1 -1 -1 -2 -2 -2 -2 -1 -0 0 -1 -1 -1 -1 -0 -1 -1 -1 -1 -1 -1 -1 -1 -1 -2 -2 -1
3 3 3 2 2 2 1 1 1 0 -0 -1 -1 -1 -0 -0 -0 -0 -1 -2 -2 -2 -2 -2 -2 -2 -2 -2 -2 -2 -1 -1 -1 -1 -1 -1 -1 -1 -1 -1 -2 -1 -1 -1 -1 -2 -2 -2 -2 -1 -1 -1 -1 -1 -1 -0 -0 -0 -1 -1 -1 -1 -1 -2 -2 -2 -2 -2 -1
3 3 3 2 2 2 1 1 1 0 -1 -1 -1 -0 -0 0 0 -0 -1 -2 -2 -2 -2 -2 -2 -2 -2 -2 -2 -2 -2 -2 -1 -1 -1 -1 -1 -1 -1 -2 -2 -2 -2 -1 -1 -2 -2 -3 -2 -1 -1 -2 -2 -2 -1 -0 -0 -0 -0 -0 -1 -1 -1 -2 -2 -2 -2 -1 -0
3 3 2 2 2 1 1 1 0 -0 -0 -0 -0 -0 -0 0 0 -0 -1 -1 -2 -2 -2 -1 -1 -2 -2 -1 -2 -2 -2 -1 -1 -1 -1 -1 -1 -2 -2 -2 -2 -2 -3 -2 -2 -2 -2 -3 -3 -2 -1 -2 -3 -2 -2 -1 -1 -0 -0 -0 -1 -1 -2 -2 -2 -1 -1 -1 -0
2 2 2 1 1 1 0 0 0 0 0 0 0 -0 -0 -0 -0 -0 -0 -1 -2 -2 -2 -2 -2 -2 -2 -2 -2 -2 -1 -1 -0 -0 -0 -1 -1 -2 -2 -2 -2 -2 -3 -3 -2 -2 -2 -2 -2 -2 -1 -2 -3 -3 -2 -2 -1 -1 -1 -1 -1 -2 -2 -2 -2 -1 -1 -1 -1
1 1 1 0 0 0 0 -0 0 0 1 0 -0 -1 -1 -0 0 0 -0 -1 -2 -2 -2 -2 -2 -2 -2 -2 -2 -1 -1 -0 -0 0 -0 -0 -1 -1 -2 -2 -2 -2 -3 -3 -3 -3 -2 -1 -1 -1 -1 -2 -3 -3 -3 -2 -2 -1 -1 -1 -1 -2 -2 -2 -2 -2 -1 -2 -2
0 0 -0 -0 -0 -0 -0 -0 -0 0 -0 -0 -1 -0 -0 0 0 -0 -1 -1 -2 -2 -2 -2 -2 -2 -2 -2 -1 -1 -0 0 0 0 0 -0 -0 -1 -1 -2 -1 -1 -2 -3 -4 -4 -3 -1 -0 -0 -1 -2 -3 -3 -3 -2 -2 -2 -2 -2 -2 -2 -2 -2 -2 -2 -1 -1 -2
Height
3028 3028 3028 3028 3028 3028 3029 3029 3029 3030 3030 3030 3031 3031 3031 3031 3032 3032 3033 3033 3034 3034 3035 3036 3037 3037 3038 3038 3039 3040 3041 3043 3044 3045 3046 3048 3049 3050 3051 3053 3053 3055 3056 3058 3059 3060 3061 3063 3064 3065 3066 3068 3069 3070 3070 3071 3072 3073 3073 3074 3075 3076 3078 3079 3080 3081 3082 3083 3083
3028 3028 3028 3028 3028 3028 3028 3028 3028 3028 3029 3029 3029 3030 3030 3030 3031 3031 3032 3032 3033 3033 3034 3035 3035 3036 3037 3038 3038 3039 3040 3041 3042 3043 3045 3046 3047 3048 3049 3051 3052 3053 3054 3056 3057 3058 3059 3061 3062 3063 3064 3066 3067 3068 3069 3069 3070 3071 3072 3073 3073 3075 3076 3077 3078 3079 3080 3081 3081
3027 3027 3027 3027 3027 3027 3027 3027 3028 3028 3028 3028 3028 3029 3029 3029 3030 3030 3030 3031 3032 3032 3033 3033 3034 3035 3036 3037 3038 3038 3039 3040 3041 3042 3043 3044 3045 3046 3048 3048 3050 3051 3053 3054 3055 3056 3058 3059 3060 3061 3062 3063 3065 3066 3067 3068 3069 3070 3071 3072 3073 3074 3075 3075 3076 3077 3078 3078 3079
3026 3026 3026 3026 3026 3026 3026 3027 3027 3027 3027 3027 3028 3028 3028 3028 3029 3029 3029 3030 3030 3031 3031 3032 3033 3033 3034 3035 3036 3037 3038 3039 3040 3041 3042 3043 3044 3045 3046 3047 3048 3049 3050 3052 3053 3054 3055 3057 3058 3059 3060 3061 3062 3063 3065 3066 3067 3068 3068 3070 3071 3073 3074 3075 3076 3076 3077 3077 3078
3025 3025 3025 3025 3025 3025 3026 3026 3026 3026 3026 3026 3027 3027 3027 3027 3028 3028 3028 3029 3029 3029 3030 3031 3031 3032 3033 3034 3035 3036 3036 3037 3038 3039 3040 3041 3042 3043 3044 3045 3046 3047 3048 3049 3050 3052 3053 3054 3056 3057 3058 3059 3060 3061 3063 3063 3065 3066 3067 3068 3069 3070 3072 3073 3075 3076 3076 3077 3077
3024 3024 3024 3024 3024 3024 3025 3025 3025 3025 3025 3025 3026 3026 3026 3026 3027 3027 3027 3028 3028 3028 3028 3029 3030 3031 3032 3033 3033 3034 3035 3036 3037 3038 3039 3040 3041 3042 3043 3043 3044 3045 3046 3047 3048 3049 3050 3052 3053 3054 3056 3057 3058 3059 3060 3061 3063 3063 3064 3065 3066 3068 3069 3070 3072 3073 3074 3075 3075
3023 3023 3023 3023 3023 3023 3024 3024 3024 3024 3024 3024 3024 3025 3025 3025 3025 3026 3026 3026 3027 3027 3027 3028 3028 3029 3030 3031 3032 3033 3033 3034 3035 3036 3037 3038 3039 3040 3041 3042 3043 3043 3044 3045 3046 3047 3048 3049 3050 3052 3053 3055 3056 3057 3058 3059 3060 3061 3062 3063 3064 3065 3066 3067 3068 3070 3071 3072 3073
3022 3022 3022 3022 3022 3022 3023 3023 3023 3023 3023 3023 3023 3023 3024 3024 3024 3024 3025 3025 3025 3025 3026 3026 3027 3028 3029 3029 3030 3031 3032 3033 3033 3034 3035 3036 3037 3038 3039 3040 3041 3042 3042 3043 3044 3045 3046 3047 3048 3049 3051 3052 3053 3054 3056 3057 3058 3059 3060 3061 3062 3063 3064 3065 3066 3067 3068 3069 3070
3020 3020 3020 3021 3021 3021 3021 3022 3022 3022 3022 3022 3022 3022 3022 3023 3023 3023 3024 3024 3024 3024 3025 3025 3026 3026 3027 3028 3028 3029 3030 3031 3032 3032 3033 3034 3035 3036 3037 3038 3039 3040 3041 3041 3042 3043 3044 3045 3046 3047 3048 3050 3051 3052 3053 3054 3055 3057 3058 3059 3060 3061 3062 3063 3063 3064 3066 3067 3068
3019 3019 3019 3019 3020 3020 3020 3020 3020 3021 3021 3021 3021 3021 3021 3021 3022 3022 3022 3023 3023 3023 3023 3024 3024 3025 3025 3026 3027 3028 3028 3029 3030 3031 3031 3032 3033 3034 3035 3036 3037 3038 3039 3040 3040 3041 3043 3043 3044 3045 3046 3047 3048 3050 3051 3052 3053 3054 3055 3056 3058 3058 3059 3060 3061 3062 3063 3065 3066
3018 3018 3018 3018 3018 3018 3019 3019 3019 3019 3019 3020 3020 3020 3020 3020 3020 3020 3021 3021 3022 3022 3022 3022 3023 3023 3024 3024 3025 3026 3026 3027 3028 3029 3030 3030 3031 3032 3033 3033 3035 3036 3037 3038 3038 3039 3041 3042 3043 3043 3044 3045 3046 3047 3048 3049 3051 3052 3053 3054 3055 3056 3057 3058 3059 3060 3061 3062 3063
3017 3017 3017 3017 3017 3017 3018 3018 3018 3018 3018 3018 3018 3018 3018 3019 3019 3019 3019 3019 3020 3020 3020 3021 3021 3022 3022 3023 3023 3024 3024 3025 3026 3027 3028 3028 3029 3030 3031 3032 3033 3033 3034 3035 3036 3037 3038 3039 3041 3042 3043 3043 3044 3045 3046 3047 3048 3049 3050 3052 3053 3053 3054 3055 3056 3058 3059 3060 3061
3016 3016 3016 3016 3016 3016 3016 3016 3017 3017 3017 3017 3017 3018 3018 3018 3018 3018 3018 3018 3018 3018 3019 3019 3019 3020 3020 3021 3021 3022 3023 3023 3023 3024 3025 3026 3027 3028 3029 3029 3030 3031 3032 3033 3034 3035 3036 3037 3038 3040 3041 3042 3043 3043 3044 3044 3046 3047 3048 3049 3050 3051 3052 3053 3054 3055 3056 3058 3059
3014 3014 3015 3015 3015 3015 3015 3015 3015 3015 3016 3016 3016 3016 3016 3016 3016 3016 3016 3017 3017 3017 3017 3018 3018 3018 3018 3019 3020 3020 3021 3021 3022 3022 3023 3024 3025 3026 3027 3027 3028 3029 3030 3031 3032 3033 3034 3035 3036 3037 3038 3039 3041 3041 3042 3043 3043 3044 3045 3047 3048 3049 3050 3051 3052 3053 3054 3055 3056
3013 3013 3013 3013 3014 3014 3014 3014 3014 3014 3014 3014 3015 3015 3015 3015 3015 3015 3015 3015 3015 3016 3016 3016 3016 3016 3017 3017 3018 3018 3019 3019 3020 3020 3021 3022 3023 3023 3024 3025 3026 3027 3028 3028 3029 3030 3031 3032 3033 3035 3036 3037 3038 3039 3040 3041 3042 3042 3043 3044 3046 3047 3048 3049 3050 3051 3052 3053 3054
3011 3012 3012 3012 3013 3013 3013 3013 3013 3013 3013 3013 3013 3014 3014 3014 3014 3014 3014 3014 3014 3014 3014 3014 3015 3015 3015 3016 3016 3016 3017 3018 3018 3018 3019 3020 3020 3021 3022 3023 3023 3024 3025 3026 3027 3028 3029 3030 3031 3032 3033 3034 3035 3037 3038 3038 3039 3040 3042 3043 3044 3045 3046 3047 3048 3049 3050 3051 3052
3009 3010 3010 3011 3011 3011 3012 3012 3012 3012 3012 3012 3012 3013 3013 3013 3013 3013 3013 3013 3013 3013 3013 3013 3013 3013 3014 3014 3014 3015 3015 3016 3016 3017 3017 3018 3018 3019 3020 3020 3021 3022 3023 3024 3025 3026 3027 3028 3028 3030 3031 3032 3033 3034 3035 3036 3037 3038 3039 3041 3042 3043 3044 3045 3046 3047 3048 3049 3050
3008 3008 3008 3009 3009 3010 3010 3010 3011 3011 3011 3011 3011 3011 3011 3012 3012 3012 3012 3012 3012 3012 3012 3012 3012 3012 3012 3012 3013 3013 3013 3014 3014 3015 3015 3016 3017 3017 3018 3018 3019 3020 3021 3022 3023 3023 3024 3025 3026 3027 3028 3029 3030 3032 3033 3034 3035 3036 3037 3038 3039 3040 3042 3043 3044 3045 3046 3047 3048
3006 3006 3007 3007 3008 3008 3009 3009 3009 3009 3010 3010 3010 3010 3010 3010 3010 3010 3010 3011 3011 3011 3011 3011 3011 3011 3011 3011 3011 3011 3012 3012 3013 3013 3013 3014 3015 3015 3016 3016 3017 3018 3018 3019 3020 3021 3022 3023 3024 3025 3026 3027 3028 3029 3030 3031 3032 3033 3034 3036 3037 3038 3039 3040 3041 3043 3044 3045 3045
3004 3004 3005 3006 3006 3007 3007 3008 3008 3008 3008 3008 3009 3009 3009 3009 3009 3009 3009 3009 3009 3009 3010 3010 3010 3010 3010 3010 3010 3010 3010 3010 3011 3011 3012 3012 3013 3013 3014 3014 3015 3016 3016 3017 3018 3018 3019 3021 3021 3022 3023 3024 3025 3026 3028 3029 3030 3031 3032 3033 3034 3035 3036 3038 3039 3040 3041 3042 3043
3002 3003 3003 3004 3004 3005 3005 3006 3006 3007 3007 3007 3007 3007 3008 3008 3008 3008 3008 3008 3008 3008 3008 3008 3008 3008 3008 3008 3008 3008 3009 3009 3009 3009 3010 3010 3011 3011 3012 3013 3013 3013 3014 3015 3015 3016 3017 3018 3019 3020 3021 3022 3023 3024 3025 3026 3027 3028 3029 3031 3032 3033 3033 3035 3036 3037 3038 3040 3041
3000 3001 3001 3002 3002 3003 3003 3004 3004 3005 3005 3005 3006 3006 3006 3006 3007 3007 3007 3007 3007 3007 3007 3007 3008 3008 3008 3007 3007 3007 3007 3008 3008 3008 3008 3008 3009 3009 3010 3011 3011 3012 3012 3013 3013 3014 3015 3016 3016 3017 3018 3019 3020 3021 3022 3023 3024 3026 3027 3028 3029 3030 3031 3032 3033 3034 3036 3037 3038
2998 2998 2999 3000 3000 3001 3002 3002 3003 3003 3003 3004 3004 3004 3005 3005 3005 3005 3005 3005 3006 3006 3006 3006 3006 3006 3006 3006 3006 3006 3006 3006 3006 3006 3006 3007 3007 3008 3008 3008 3009 3010 3010 3011 3011 3012 3013 3013 3014 3015 3016 3017 3018 3018 3019 3021 3022 3023 3024 3025 3026 3028 3028 3029 3030 3032 3033 3034 3035
2995 2996 2997 2998 2998 2999 3000 3000 3001 3001 3002 3002 3002 3003 3003 3003 3003 3004 3004 3004 3004 3004 3005 3005 3005 3005 3005 3005 3005 3005 3005 3005 3005 3005 3005 3005 3005 3006 3006 3007 3007 3008 3008 3009 3009 3010 3011 3011 3012 3012 3013 3014 3015 3016 3017 3018 3019 3020 3021 3023 3024 3025 3026 3027 3028 3029 3030 3032 3033
2993 2994 2994 2995 2996 2997 2998 2998 2999 2999 3000 3000 3000 3001 3001 3002 3002 3002 3002 3003 3003 3003 3003 3003 3004 3004 3004 3004 3004 3004 3004 3003 3003 3003 3003 3003 3003 3004 3004 3005 3005 3006 3006 3007 3008 3008 3008 3009 3009 3010 3011 3012 3013 3013 3014 3015 3017 3018 3019 3020 3021 3022 3023 3024 3025 3027 3028 3029 3030
2991 2991 2992 2993 2994 2995 2995 2996 2997 2997 2998 2998 2998 2999 2999 3000 3000 3000 3001 3001 3001 3001 3002 3002 3002 3003 3003 3003 3003 3003 3003 3003 3002 3002 3002 3002 3002 3002 3003 3003 3003 3003 3004 3005 3005 3006 3006 3007 3007 3008 3009 3009 3010 3011 3012 3013 3014 3015 3016 3017 3018 3019 3020 3022 3023 3024 3025 3026 3028
2988 2989 2990 2991 2991 2992 2993 2994 2995 2995 2996 2996 2997 2997 2998 2998 2998 2998 2999 2999 2999 3000 3000 3000 3001 3001 3001 3001 3001 3001 3001 3001 3001 3001 3001 3001 3001 3001 3001 3001 3001 3002 3002 3003 3003 3003 3004 3005 3005 3006 3007 3007 3008 3008 3009 3010 3011 3012 3013 3014 3016 3017 3018 3019 3020 3021 3022 3023 3025
2985 2986 2987 2988 2989 2990 2991 2992 2992 2993 2993 2994 2994 2995 2995 2996 2996 2997 2997 2997 2998 2998 2998 2998 2999 2999 2999 2999 3000 3000 3000 3000 3000 3000 3000 3000 2999 2999 2999 2999 3000 3000 3000 3001 3001 3001 3002 3003 3003 3004 3005 3005 3006 3006 3007 3008 3009 3010 3011 3012 3013 3014 3015 3016 3017 3018 3019 3021 3022
2983 2984 2985 2986 2987 2988 2988 2989 2990 2991 2991 2992 2992 2993 2993 2994 2994 2995 2995 2995 2996 2996 2996 2997 2997 2998 2998 2998 2998 2998 2998 2998 2998 2998 2998 2998 2998 2998 2998 2998 2998 2998 2998 2999 2999 2999 3000 3000 3001 3002 3003 3003 3004 3004 3005 3006 3006 3007 3008 3009 3010 3011 3012 3013 3014 3015 3017 3018 3019
2981 2981 2982 2983 2984 2985 2986 2987 2988 2988 2989 2990 2990 2990 2991 2992 2992 2993 2993 2993 2994 2994 2995 2995 2995 2996 2996 2996 2996 2997 2997 2997 2997 2997 2997 2997 2997 2997 2997 2997 2997 2997 2997 2997 2997 2998 2998 2998 2999 2999 3000 3001 3002 3002 3003 3003 3004 3005 3006 3006 3007 3008 3009 3011 3012 3013 3014 3015 3016
2978 2979 2980 2981 2982 2983 2983 2984 2985 2986 2987 2987 2988 2988 2989 2989 2990 2991 2991 2992 2992 2992 2993 2993 2993 2994 2994 2994 2995 2995 2995 2995 2995 2996 2996 2996 2996 2996 2996 2996 2996 2996 2996 2996 2996 2996 2996 2997 2997 2998 2998 2999 2999 3000 3000 3001 3002 3003 3003 3004 3005 3006 3007 3008 3009 3010 3011 3012 3013
2975 2976 2978 2978 2979 2980 2981 2982 2983 2983 2984 2985 2985 2986 2987 2987 2988 2988 2989 2989 2990 2990 2991 2991 2992 2992 2992 2993 2993 2993 2993 2993 2994 2994 2994 2994 2994 2994 2994 2994 2994 2994 2994 2994 2994 2994 2995 2995 2995 2996 2997 2997 2998 2998 2998 2999 2999 3000 3001 3001 3002 3003 3004 3005 3006 3007 3008 3009 3010
2973 2974 2975 2976 2977 2978 2979 2979 2980 2981 2982 2982 2983 2983 2984 2985 2986 2986 2987 2987 2988 2988 2989 2989 2990 2990 2990 2991 2991 2991 2992 2992 2992 2992 2992 2993 2993 2993 2993 2993 2993 2993 2993 2993 2993 2993 2993 2993 2994 2994 2995 2995 2996 2996 2996 2997 2997 2998 2998 2999 3000 3000 3001 3002 3003 3004 3005 3006 3008
2971 2972 2973 2974 2975 2975 2976 2977 2978 2978 2979 2980 2980 2981 2982 2983 2983 2984 2984 2985 2986 2986 2987 2987 2988 2988 2988 2989 2989 2990 2990 2990 2990 2991 2991 2991 2991 2991 2991 2991 2991 2992 2992 2992 2992 2992 2992 2992 2993 2993 2993 2994 2994 2994 2994 2995 2995 2996 2996 2997 2997 2998 2999 3000 3001 3002 3003 3003 3005
2969 2970 2971 2972 2972 2973 2973 2974 2975 2976 2976 2977 2978 2979 2980 2980 2981 2982 2982 2983 2983 2984 2985 2985 2986 2986 2987 2987 2988 2988 2988 2988 2989 2989 2989 2989 2989 2989 2989 2989 2990 2990 2990 2990 2990 2990 2990 2991 2991 2991 2992 2992 2992 2992 2992 2993 2993 2994 2994 2995 2995 2996 2997 2998 2998 2999 3000 3001 3002
2967 2968 2968 2969 2970 2971 2971 2972 2973 2973 2974 2975 2976 2977 2977 2978 2979 2979 2980 2981 2981 2982 2983 2983 2984 2984 2985 2985 2986 2986 2987 2987 2987 2987 2987 2988 2988 2988 2988 2988 2988 2988 2988 2988 2988 2988 2989 2989 2989 2990 2990 2990 2990 2990 2991 2991 2991 2992 2992 2993 2993 2994 2994 2995 2996 2996 2997 2998 2999
2964 2965 2966 2967 2968 2968 2969 2969 2970 2971 2971 2972 2973 2974 2975 2976 2976 2977 2978 2978 2979 2979 2980 2981 2982 2982 2983 2983 2984 2984 2984 2985 2985 2985 2986 2986 2986 2986 2986 2986 2986 2986 2986 2987 2987 2987 2987 2987 2988 2988 2988 2988 2988 2988 2989 2989 2990 2990 2991 2991 2991 2992 2992 2993 2993 2994 2995 2996 2997
2962 2963 2963 2964 2965 2966 2966 2967 2968 2968 2969 2970 2971 2972 2972 2973 2974 2974 2975 2976 2977 2977 2978 2979 2979 2980 2981 2981 2982 2982 2983 2983 2983 2984 2984 2984 2984 2984 2984 2985 2985 2985 2985 2985 2985 2985 2985 2985 2986 2986 2987 2986 2986 2987 2987 2987 2988 2988 2989 2989 2989 2990 2990 2991 2991 2992 2993 2993 2994
2959 2960 2961 2962 2962 2963 2963 2964 2965 2966 2967 2967 2968 2969 2969 2970 2971 2972 2973 2973 2974 2975 2976 2976 2977 2978 2978 2979 2980 2980 2981 2981 2982 2982 2982 2983 2983 2983 2983 2983 2983 2983 2983 2983 2983 2983 2983 2984 2984 2984 2984 2985 2985 2985 2985 2986 2986 2986 2987 2987 2988 2988 2988 2988 2989 2990 2990 2991 2992
2957 2958 2958 2959 2959 2960 2961 2962 2962 2963 2964 2964 2965 2966 2967 2968 2968 2969 2970 2971 2972 2973 2973 2974 2975 2975 2976 2977 2978 2978 2979 2979 2980 2980 2981 2981 2981 2981 2981 2982 2982 2982 2982 2981 2981 2982 2982 2982 2982 2983 2983 2983 2983 2983 2983 2984 2984 2984 2985 2985 2986 2986 2986 2987 2987 2988 2988 2989 2990
2954 2955 2955 2956 2957 2958 2958 2959 2960 2960 2961 2962 2963 2963 2964 2965 2966 2967 2967 2968 2969 2970 2971 2972 2973 2973 2974 2975 2976 2976 2977 2978 2978 2978 2979 2979 2979 2979 2980 2980 2980 2980 2980 2980 2980 2980 2980 2980 2981 2981 2981 2981 2981 2981 2981 2982 2982 2983 2983 2983 2984 2984 2984 2985 2985 2986 2986 2987 2988